Location: Invercargill
(46.4000°S, 168.3500°E)
Time: 18:46:02
(UTC+13:00)

Cosmos 2322 - Pass Details

Date: 08 October 2021
Orbit: 840 x 855 km, 71.0° (Epoch: 17 October)

Event Time Altitude Azimuth Distance (km) Brightness Sun altitude
Rises 21:11:13 0° 203° (SSW) 3,437 7.6 -11.9°
Reaches altitude 10° 21:13:50 10° 195° (SSW) 2,498 6.7 -12.3°
Maximum altitude 21:19:15 41° 125° (SE) 1,232 4.3 -13.2°
Enters shadow 21:22:49 20° 65° (ENE) 1,896 4.9 -13.7°
